Tracking 28518 objects as of 1-Mar-2024
HD Live streaming from Space Station
objects crossing your sky now

STARLINK-5640

Track STARLINK-5640 now!
10-day predictions
STARLINK-5640 is classified as:


NORAD ID: 55436
Int'l Code: 2023-014AX
Perigee: 577.0 km
Apogee: 581.4 km
Inclination: 70.0 °
Period: 96.1 minutes
Semi major axis: 6950 km
RCS: Unknown
Launch date: January 31, 2023
Source: United States (US)
Launch site: AIR FORCE WESTERN TEST RANGE (AFWTR)
Your satellite tracking list
Your tracking list is empty




NASA's NSSDC Master Catalog

Two Line Element Set (TLE):
1 55436U 23014AX  24060.69766512  .00001214  00000-0  10954-3 0  9997
2 55436  70.0007 167.7676 0003173 269.8488  90.2307 14.98333363 60378
Source of the keplerian elements: AFSPC